Regional Weather Roundup
Issued by NWS

Home | Current Version | Previous Version | Text Only | Print | Product List | Glossary Off
Versions: 1 2 3 4 5 6 7 8 9 10 11 12 13 14 15 16 17 18 19 20 21 22 23 24 25 26 27 28 29 30 31 32 33 34 35 36 37 38 39 40 41 42 43 44 45 46 47 48 49 50

000
ASUS43 KMKX 201810
RWRWI

WISCONSIN REGIONAL WEATHER ROUNDUP
NATIONAL WEATHER SERVICE MILWAUKEE/SULLIVAN WI
100 PM CDT SUN MAY 20 2018

NOTE: "FAIR" INDICATES FEW OR NO CLOUDS BELOW 12,000 FEET WITH NO
SIGNIFICANT WEATHER AND/OR OBSTRUCTIONS TO VISIBILITY.

WIZ001-002-006>008-014>016-023>028-201900-
NORTHWEST WISCONSIN

CITY           SKY/WX    TMP DP  RH WIND       PRES   REMARKS
SUPERIOR ARPT  FAIR      60  32  34 NE7       30.28F
6HR MIN TEMP:  33; 6HR MAX TEMP:  61;

ASHLAND        FAIR      61  29  29 N9        30.27F
6HR MIN TEMP:  35; 6HR MAX TEMP:  62;

HAYWARD        FAIR      67  28  23 E13       30.25F
6HR MIN TEMP:  38; 6HR MAX TEMP:  67;

SIREN          FAIR      65  23  20 SE9       30.25F
6HR MIN TEMP:  38; 6HR MAX TEMP:  65;

CUMBERLAND     FAIR      61  27  27 E5        30.25F
RICE LAKE      FAIR      64  23  20 E12       30.25F
6HR MIN TEMP:  40; 6HR MAX TEMP:  64;

CHETEK         FAIR      63  30  29 E3        30.25F
6HR MIN TEMP:  40; 6HR MAX TEMP:  63;

LADYSMITH      FAIR      64  29  26 SE3       30.26F
6HR MIN TEMP:  40; 6HR MAX TEMP:  64;

EAU CLAIRE     FAIR      64  37  36 E9G16     30.22F
6HR MIN TEMP:  44; 6HR MAX TEMP:  65;

MENOMONIE      FAIR      64  34  31 E6        30.23F
6HR MIN TEMP:  44; 6HR MAX TEMP:  65;

NEW RICHMOND   FAIR      65  22  19 NE10      30.24S
6HR MIN TEMP:  42; 6HR MAX TEMP:  65;

OSCEOLA        FAIR      65  26  23 E7        30.27F
6HR MIN TEMP:  42; 6HR MAX TEMP:  65;

$$

WIZ003>005-009-010-017-018-201900-
NORTH CENTRAL WISCONSIN

CITY           SKY/WX    TMP DP  RH WIND       PRES   REMARKS
MANITOWISH WTR FAIR      62  30  29 N3        30.25F
6HR MIN TEMP:  38; 6HR MAX TEMP:  62;

ARBOR VITAE    FAIR      62  27  26 S5        30.24F
6HR MIN TEMP:  39; 6HR MAX TEMP:  63;

WOODRUFF       FAIR      62  27  26 S5        30.24F
6HR MIN TEMP:  39; 6HR MAX TEMP:  63;

RHINELANDER    FAIR      63  26  24 E6        30.25F
6HR MIN TEMP:  41; 6HR MAX TEMP:  65;

EAGLE RIVER    FAIR      63  23  22 E3        30.24F
6HR MIN TEMP:  38; 6HR MAX TEMP:  63;

LAND O LAKES   FAIR      63  28  26 E8        30.26F
6HR MIN TEMP:  37; 6HR MAX TEMP:  63;

PHILLIPS       FAIR      62  30  29 E6        30.24F
6HR MIN TEMP:  37; 6HR MAX TEMP:  62;

TOMAHAWK       FAIR      61  28  28 N3        30.25F
6HR MIN TEMP:  39; 6HR MAX TEMP:  61;

MEDFORD        FAIR      60  29  31 E7        30.24S
6HR MIN TEMP:  39; 6HR MAX TEMP:  61;

MERRILL        FAIR      63  28  27 CALM      30.24F
6HR MIN TEMP:  38; 6HR MAX TEMP:  63;

$$

WIZ029-030-035-036-043>047-201900-
CENTRAL WISCONSIN

CITY           SKY/WX    TMP DP  RH WIND       PRES   REMARKS
WAUSAU         FAIR      63  28  26 E6        30.22F
6HR MIN TEMP:  42; 6HR MAX TEMP:  64;

MOSINEE        MOSUNNY   63  30  29 NE9       30.24F
MARSHFIELD     FAIR      63  41  44 E10       30.22F
6HR MIN TEMP:  45; 6HR MAX TEMP:  64;

STEVENS POINT  NOT AVBL
WAUPACA        FAIR      64  41  43 E3        30.24F
6HR MIN TEMP:  48; 6HR MAX TEMP:  64;

WAUTOMA        CLOUDY    57  45  64 SE7       30.25S
6HR MIN TEMP:  46; 6HR MAX TEMP:  58;

WISC RAPIDS    FAIR      64  41  42 MISG      30.23F
6HR MIN TEMP:  47; 6HR MAX TEMP:  64;

CAMP DOUGLAS   PTSUNNY   55  46  71 SE6       30.24F
$$

WIZ011>013-019>022-031-037>040-048>050-201900-
NORTHEAST WISCONSIN

CITY           SKY/WX    TMP DP  RH WIND       PRES   REMARKS
ANTIGO         FAIR      59  28  31 NE5       30.24F
6HR MIN TEMP:  38; 6HR MAX TEMP:  59;

SHAWANO        FAIR      63  32  31 E6        30.24F
6HR MIN TEMP:  45; 6HR MAX TEMP:  63;

OCONTO         FAIR      56  33  42 E9        30.26S
6HR MIN TEMP:  42; 6HR MAX TEMP:  56;

STURGEON BAY   FAIR      52  35  52 NW6       30.27S
6HR MIN TEMP:  42; 6HR MAX TEMP:  53;

GREEN BAY      FAIR      57  30  35 NE17      30.25F
6HR MIN TEMP:  44; 6HR MAX TEMP:  58;

MANITOWOC      FAIR      53  41  63 N7        30.25F
6HR MIN TEMP:  44; 6HR MAX TEMP:  53; 6HR PCP: TRACE;

APPLETON       PTSUNNY   55  37  50 VRB6      30.23F
CLINTONVILLE   FAIR      62  32  32 NE7       30.24F
6HR MIN TEMP:  44; 6HR MAX TEMP:  62;

OSHKOSH        FAIR      55  44  66 NE10      30.24F
6HR MIN TEMP:  46; 6HR MAX TEMP:  55; 6HR PCP:  0.01;

$$

WIZ032>034-041-042-053>061-201900-
SOUTHWEST WISCONSIN

CITY           SKY/WX    TMP DP  RH WIND       PRES   REMARKS
LA CROSSE      CLOUDY    52  48  86 NE7       30.23F
6HR MIN TEMP:  49; 6HR MAX TEMP:  52; 6HR PCP:  0.03;

SPARTA         CLOUDY    53  46  77 E5        30.25S
6HR MIN TEMP:  46; 6HR MAX TEMP:  53; 6HR PCP:  0.02;

VIROQUA        CLOUDY    50  48  94 E9        30.23S
6HR MIN TEMP:  47; 6HR MAX TEMP:  50;

BOSCOBEL       CLOUDY    55  49  80 E6        30.23R
6HR MIN TEMP:  52; 6HR MAX TEMP:  55; 6HR PCP:  0.04;

PRAIRIE DU CHI CLOUDY    53  49  86 NE7       30.22R
6HR MIN TEMP:  52; 6HR MAX TEMP:  55; 6HR PCP:  0.06;

PLATTEVILLE    CLOUDY    52  52  99 NE12      30.21R
6HR MIN TEMP:  50; 6HR MAX TEMP:  54; 6HR PCP:  0.07;

$$

WIZ056-057-062-063-064-067-068-201900-
SOUTH CENTRAL WISCONSIN

CITY           SKY/WX    TMP DP  RH WIND       PRES   REMARKS
REEDSBURG      CLOUDY    51  45  80 NE8       30.24S
6HR MIN TEMP:  47; 6HR MAX TEMP:  51;

BARABOO/DELLS  CLOUDY    51  44  77 NE6       30.24S
6HR MIN TEMP:  46; 6HR MAX TEMP:  52;

LONE ROCK      CLOUDY    54  49  83 E8        30.23S
6HR MIN TEMP:  50; 6HR MAX TEMP:  54; 6HR PCP: TRACE;

MINERAL POINT  CLOUDY    52  52 100 NE12      30.20F
MADISON        CLOUDY    52  47  83 NE7       30.22F
6HR MIN TEMP:  47; 6HR MAX TEMP:  52; 6HR PCP:  0.16;

MIDDLETON      CLOUDY    53  48  83 NE9       30.23F
6HR MIN TEMP:  49; 6HR MAX TEMP:  54; 6HR PCP:  0.21;

WATERTOWN      CLOUDY    50  46  87 NE6       30.24R
6HR MIN TEMP:  46; 6HR MAX TEMP:  51; 6HR PCP:  0.02;

MONROE         CLOUDY    54  48  82 NE12      30.20S
JANESVILLE     NOT AVBL
$$

WIZ051-052-058>065-066-070>072-201900-
SOUTHEAST WISCONSIN

CITY           SKY/WX    TMP DP  RH WIND       PRES   REMARKS
MILWAUKEE      CLOUDY    47  42  83 NE17G26   30.25R
6HR MIN TEMP:  43; 6HR MAX TEMP:  47; 6HR PCP:  0.27;

WAUKESHA       CLOUDY    46  43  87 NE3       30.25R
MILWAUKEE/TIMM DRIZZLE   45  37  76 NE9       30.26R
RACINE         CLOUDY    45  41  86 N15G25    30.26R
6HR MIN TEMP:  42; 6HR MAX TEMP:  46; 6HR PCP:  0.28;

BURLINGTON     CLOUDY    48  44  85 E10       30.23S
6HR MIN TEMP:  43; 6HR MAX TEMP:  48; 6HR PCP:  0.19;

KENOSHA        CLOUDY    47  42  83 NE15      30.24R
6HR MIN TEMP:  42; 6HR MAX TEMP:  47; 6HR PCP:  0.28;

FOND DU LAC    CLOUDY    53  45  74 NE10      30.24S
6HR MIN TEMP:  47; 6HR MAX TEMP:  53; 6HR PCP:  0.01;

SHEBOYGAN      PTSUNNY   51  43  74 NE10      30.24F
6HR MIN TEMP:  45; 6HR MAX TEMP:  53;

WEST BEND      CLOUDY    52  45  76 NE10      30.24S
JUNEAU         CLOUDY    51  44  78 N5        30.25S
6HR MIN TEMP:  46; 6HR MAX TEMP:  51;

$$

LSZ147-162-201900-
LAKE SUPERIOR

STATION/POSITION TIME  TEMP    WIND        PRES    WAVE
                       AIR SEA DIR/SP/G            HT/PER
                 (UTC) (F)     (DEG/KT/KT) (MB)    (FT/S)
W MID LAKE BUOY  1750   39 36  220/  8/ 10 1025.9F   1
DEVILS ISLAND    1800   48     230/  6/  8 1026.0F
SAXON HARBOR     1740   46      40/  5/  6 1025.1F
$$

LMZ867-665-643>646-201900-
LAKE MICHIGAN

STATION/POSITION TIME  TEMP    WIND        PRES    WAVE
                       AIR SEA DIR/SP/G            HT/PER
                 (UTC) (F



USA.gov is the U.S. government's official web portal to all federal, state and local government web resources and services.